Weather History for Westfield, MA

Change the Weather History Date:

Wednesday, January 29, 2014

  Actual Average Record
Temperature  
Mean Temperature 16 °F -  
Max Temperature 25 °F 30 °F 62 °F (2002)
Min Temperature 7 °F 13 °F -9 °F (2005)
Degree Days  
Heating Degree Days 49    
Moisture  
Dew Point -4 °F    
Average Humidity 44    
Maximum Humidity 76    
Minimum Humidity 23    
Precipitation  
Precipitation 0.00 in - - ()
Sea Level Pressure  
Sea Level Pressure 30.14 in    
Wind  
Wind Speed 4 mph (West)    
Max Wind Speed 10 mph    
Max Gust Speed -    
Visibility 10 miles    
Events Snow    
Averages and records for this station are not official NWS values.
T = Trace of Precipitation, MM = Missing Value Source: NWS Daily Summary

Daily Weather History Graph

Daily Weather History Graph

Search for Another Location

Airport:

Trip Planner

Search our weather history database for the weather conditions in past years. The results will help you decide how hot, cold, wet, or windy it might be!

Date:

Astronomy

Jan. 29, 2014 Rise Set
Actual Time 7:06 AM EST 5:01 PM EST
Civil Twilight 6:37 AM EST 5:31 PM EST
Nautical Twilight 6:03 AM EST 6:05 PM EST
Astronomical Twilight 5:30 AM EST 6:38 PM EST
Moon 5:41 AM EST (1/29) 3:57 PM EST (1/29)
Length of Visible Light 10h 54m
Length of Day
9h 54m
Waning Crescent, 2% of the Moon is Illuminated
Jan 29
Waning Crescent
Jan 30
New
Feb 6
First Quarter
Feb 14
Full
Feb 22
Last Quarter

Hourly Weather History & Observations

Time (EST) Temp. Windchill Dew Point Humidity Pressure Visibility Wind Dir Wind Speed Gust Speed Precip Events Conditions
12:53 AM 15.1 °F - -6.0 °F 39% 30.21 in 10.0 mi Calm Calm - N/A   Overcast
1:53 AM 14.0 °F - -2.0 °F 49% 30.20 in 10.0 mi Calm Calm - N/A   Overcast
2:53 AM 15.1 °F 7.7 °F -0.9 °F 49% 30.19 in 10.0 mi South 4.6 mph - N/A   Overcast
3:53 AM 12.9 °F 3.8 °F 3.9 °F 67% 30.18 in 6.0 mi South 5.8 mph - 0.00 in Snow Light Snow
4:53 AM 14.0 °F - 3.9 °F 64% 30.16 in 10.0 mi Calm Calm - 0.00 in   Overcast
5:53 AM 12.9 °F - 3.0 °F 65% 30.13 in 10.0 mi Calm Calm - N/A   Partly Cloudy
6:53 AM 10.9 °F - 3.9 °F 73% 30.15 in 10.0 mi Calm Calm - N/A   Overcast
7:53 AM 10.0 °F - 3.9 °F 76% 30.15 in 10.0 mi Calm Calm - N/A   Mostly Cloudy
8:53 AM 15.1 °F 6.4 °F -4.0 °F 43% 30.14 in 10.0 mi NNW 5.8 mph - N/A   Clear
9:53 AM 17.1 °F 8.7 °F -8.0 °F 33% 30.14 in 10.0 mi NW 5.8 mph - N/A   Clear
10:53 AM 19.0 °F 8.2 °F -11.9 °F 25% 30.12 in 10.0 mi West 9.2 mph - N/A   Clear
11:53 AM 21.0 °F 11.4 °F -9.0 °F 26% 30.08 in 10.0 mi West 8.1 mph - N/A   Clear
12:53 PM 23.0 °F 12.4 °F -5.1 °F 29% 30.04 in 10.0 mi WSW 10.4 mph - N/A   Clear
1:53 PM 24.1 °F 15.2 °F -8.0 °F 24% 30.02 in 10.0 mi WNW 8.1 mph - N/A   Clear
2:53 PM 25.0 °F 19.3 °F -8.0 °F 23% 30.01 in 10.0 mi WNW 4.6 mph - N/A   Clear
3:53 PM 24.1 °F 14.4 °F -6.0 °F 27% 30.03 in 10.0 mi WSW 9.2 mph - N/A   Clear
4:53 PM 21.9 °F 11.0 °F -7.1 °F 28% 30.06 in 10.0 mi WSW 10.4 mph - N/A   Clear
5:53 PM 21.0 °F 16.2 °F -7.1 °F 29% 30.10 in 10.0 mi WSW 3.5 mph - N/A   Clear
6:53 PM 18.0 °F 9.8 °F -6.0 °F 35% 30.13 in 10.0 mi WSW 5.8 mph - N/A   Clear
7:53 PM 18.0 °F 6.9 °F -6.0 °F 35% 30.18 in 10.0 mi West 9.2 mph - N/A   Clear
8:53 PM 16.0 °F 8.8 °F -6.0 °F 38% 30.20 in 10.0 mi West 4.6 mph - N/A   Clear
9:53 PM 9.0 °F - -2.0 °F 61% 30.24 in 10.0 mi Calm Calm - N/A   Clear
10:53 PM 7.0 °F -1.7 °F -4.0 °F 61% 30.25 in 10.0 mi North 4.6 mph - N/A   Clear
11:53 PM 9.0 °F -0.9 °F -6.0 °F 51% 30.26 in 10.0 mi SSW 5.8 mph - N/A   Clear